Amarillo, TX

8:38 PM CDT on April 19, 2018 (GMT -0500)
Amarillo International

Weather History for KAMA - December, 2013

Change the Weather History Date:

Tuesday, December 3, 2013

  Actual Average Record
Temperature  
Mean Temperature 56 °F 39 °F  
Max Temperature 72 °F 52 °F 77 °F (2017)
Min Temperature 40 °F 26 °F -1 °F (1897)
Degree Days  
Heating Degree Days 9 26  
Month to date heating degree days 41 77  
Since 1 July heating degree days 879 921  
Cooling Degree Days 0 0  
Month to date cooling degree days 0 0  
Year to date cooling degree days 1806 1399  
Growing Degree Days 7 (Base 50)    
Moisture  
Dew Point 22 °F    
Average Humidity 33    
Maximum Humidity 53    
Minimum Humidity 13    
Precipitation  
Precipitation 0.00 in 0.02 in 0.79 in (1947)
Month to date precipitation 0.00 0.06  
Year to date precipitation 14.89 19.71  
Snow  
Snow 0.00 in 0.10 in 4.10 in (2002)
Month to date snowfall 0.0 0.3  
Since 1 July snowfall 4.3 3.0  
Snow Depth 0.00 in    
Sea Level Pressure  
Sea Level Pressure 29.50 in    
Wind  
Wind Speed 14 mph (WSW)    
Max Wind Speed 25 mph    
Max Gust Speed 31 mph    
Visibility 10 miles    
Events      
T = Trace of Precipitation, MM = Missing Value Source: NWS Daily Summary

Daily Weather History Graph

Daily Weather History Graph

Search for Another Location

Airport or City:

Astronomy

Dec. 03, 2013 Rise Set
Actual Time 7:39 AM CST 5:34 PM CST
Civil Twilight 7:11 AM CST 6:02 PM CST
Nautical Twilight 6:39 AM CST 6:33 PM CST
Astronomical Twilight 6:08 AM CST 7:04 PM CST
Moon 8:11 AM CST (12/3) 6:39 PM CST (12/3)
Length of Visible Light 10h 51m
Length of Day
9h 55m
New Moon, 1% of the Moon is Illuminated
Dec 3
New Moon
Dec 9
First Quarter
Dec 17
Full
Dec 25
Last Quarter
Jan 1
New

Hourly Weather History & Observations

Time (CST) Temp. Windchill Dew Point Humidity Pressure Visibility Wind Dir Wind Speed Gust Speed Precip Events Conditions
12:53 AM 46.0 °F 41.4 °F 28.0 °F 50% 29.53 in 10.0 mi West 9.2 mph - N/A   Clear
1:53 AM 48.0 °F - 26.1 °F 42% 29.52 in 10.0 mi West 9.2 mph - N/A   Clear
2:53 AM 44.1 °F 41.5 °F 25.0 °F 47% 29.52 in 10.0 mi WSW 4.6 mph - N/A   Clear
3:53 AM 48.0 °F - 24.1 °F 39% 29.51 in 10.0 mi WNW 13.8 mph - N/A   Clear
4:53 AM 46.9 °F - 24.1 °F 41% 29.51 in 10.0 mi WNW 13.8 mph - N/A   Clear
5:53 AM 48.9 °F - 23.0 °F 36% 29.52 in 10.0 mi WNW 12.7 mph - N/A   Clear
6:53 AM 43.0 °F 37.7 °F 24.1 °F 47% 29.55 in 10.0 mi WNW 9.2 mph - N/A   Clear
7:53 AM 48.9 °F - 21.9 °F 35% 29.55 in 10.0 mi WNW 10.4 mph - N/A   Clear
8:53 AM 51.1 °F - 23.0 °F 33% 29.56 in 10.0 mi West 4.6 mph - N/A   Clear
9:53 AM 57.0 °F - 24.1 °F 28% 29.60 in 10.0 mi SW 8.1 mph - N/A   Clear
10:53 AM 64.0 °F - 21.9 °F 20% 29.57 in 10.0 mi West 16.1 mph - N/A   Clear
11:53 AM 71.1 °F - 18.0 °F 13% 29.52 in 10.0 mi WSW 17.3 mph 23.0 mph N/A   Clear
12:53 PM 72.0 °F - 17.1 °F 12% 29.48 in 10.0 mi SW 18.4 mph 25.3 mph N/A   Clear
1:53 PM 71.1 °F - 18.0 °F 13% 29.45 in 10.0 mi WSW 20.7 mph - N/A   Clear
2:53 PM 71.1 °F - 19.0 °F 14% 29.44 in 10.0 mi SW 20.7 mph 28.8 mph N/A   Clear
3:53 PM 70.0 °F - 17.1 °F 13% 29.44 in 10.0 mi WSW 23.0 mph - N/A   Clear
4:53 PM 68.0 °F - 17.1 °F 14% 29.44 in 10.0 mi SW 18.4 mph 25.3 mph N/A   Clear
5:53 PM 62.1 °F - 19.0 °F 19% 29.46 in 10.0 mi SSW 15.0 mph - N/A   Clear
6:53 PM 57.9 °F - 19.9 °F 23% 29.47 in 10.0 mi SSW 17.3 mph 28.8 mph N/A   Clear
7:53 PM 54.0 °F - 21.9 °F 29% 29.48 in 10.0 mi SW 13.8 mph - N/A   Clear
8:53 PM 53.1 °F - 21.9 °F 30% 29.49 in 10.0 mi SW 15.0 mph - N/A   Clear
9:53 PM 53.1 °F - 21.9 °F 30% 29.49 in 10.0 mi SW 15.0 mph - N/A   Clear
10:53 PM 48.0 °F - 23.0 °F 37% 29.48 in 10.0 mi SW 11.5 mph - N/A   Clear
11:53 PM 46.0 °F 39.9 °F 24.1 °F 42% 29.47 in 10.0 mi SW 13.8 mph - N/A   Clear